Location: Coffee Creek Observatory
(38.8077°N, 94.7179°W)
Time: 13:43:55
(UTC-05:00)

Daily predictions for brighter satellites

Satellite Brightness Start Highest point End
(mag) Time Altitude Azimuth Time Altitude Azimuth Time Altitude Azimuth
ATLAS 5 CENTAUR R/B 3.6 20:52:57 10° NNW 20:58:06 29° NE 21:03:37 10° ESE
Spot 2 Rocket 3.6 20:54:20 10° SSE 20:59:26 86° ENE 21:04:35 10° NNW
Cosmos 1869 Rocket 4.2 21:03:02 10° SSE 21:06:59 36° E 21:10:59 10° NNE
Cosmos 1408 4.0 21:05:26 10° SE 21:08:17 21° E 21:11:09 10° NE
NOSS 3-2 (C) 4.3 21:03:52 10° SW 21:09:44 56° NW 21:16:12 10° NNE
Cosmos 1346 Rocket 2.8 21:06:32 10° N 21:10:32 78° E 21:14:32 10° SSE
Lacrosse 5 rocket 1.5 21:08:57 10° SW 21:12:30 63° NW 21:16:06 10° NE
COSMOS 2455 3.0 21:10:29 10° SSW 21:16:29 84° WNW 21:22:32 10° NNE
CENTAUR R/B 2.5 21:10:59 10° SSW 21:16:44 59° ESE 21:23:17 10° NE
Molniya-1 3.7 21:15:43 10° SW 21:17:28 40° NW 21:19:00 10° NNE
Cosmos 372 Rocket 4.3 21:18:16 10° S 21:23:05 42° ESE 21:27:53 10° NNE
Envisat 3.2 21:21:32 10° S 21:26:37 77° WSW 21:31:42 10° NNW
Cosmos 1939 Rocket 2.9 21:23:47 10° SSE 21:27:55 85° ENE 21:32:03 10° N
Helios 1A 3.0 21:25:42 10° SSE 21:29:50 66° ENE 21:34:02 10° N
Cosmos 1825 2.6 21:28:35 10° SSE 21:32:08 39° E 21:35:41 10° NNE
Cosmos 2221 Rocket 3.7 21:29:10 10° N 21:33:34 59° E 21:37:51 11° SSE
SJ-11-01 4.5 21:36:13 10° S 21:40:56 75° WSW 21:45:39 10° NNW
Cosmos 1125 Rocket 3.4 21:37:54 10° SSW 21:43:09 81° ESE 21:48:24 10° NNE
USA 186 4.2 21:41:20 10° SW 21:43:20 18° W 21:45:26 10° NW
Cosmos 1269 Rocket 4.3 21:38:56 10° N 21:44:06 52° ENE 21:47:51 18° SE
Cosmos 1634 Rocket 4.2 21:44:17 10° N 21:50:35 74° W 21:56:52 10° S
Cosmos 1782 2.7 21:47:51 10° N 21:51:52 79° E 21:54:52 17° SSE
Cosmos 1943 Rocket 2.2 21:50:29 10° SSW 21:56:04 85° WNW 22:01:40 10° NNE
deb Kosmos-1763 4.1 21:53:29 10° NNW 21:57:16 74° ENE 21:59:18 26° SSE
Nadezhda 4 Rocket 4.4 21:53:34 17° SSE 21:57:57 41° E 22:03:38 10° NNE
SAR-Lupe-4 3.6 22:01:44 21° S 22:03:59 77° WSW 22:07:35 10° NNW
Cosmos 158 Rocket 3.8 21:59:30 10° NNW 22:04:25 89° WSW 22:07:35 22° SSE
Resurs 01 Rocket 4.3 22:01:49 10° SW 22:04:26 15° W 22:07:05 10° NW
Okean 1-7 3.6 22:01:34 10° NNW 22:05:55 59° W 22:09:50 12° S
Cosmos 1340 2.6 22:03:41 10° N 22:07:29 76° E 22:09:15 30° SSE
OAO 3 Copernicus 4.4 22:03:49 10° WSW 22:08:43 54° S 22:11:17 26° ESE
Cosmos 1862 3.2 22:09:36 22° S 22:12:01 73° E 22:15:59 10° NNE
Meteor 1-29 4.3 22:11:39 10° N 22:14:58 40° WNW 22:18:14 10° SW
YAOGAN 6 4.2 22:11:47 10° SSW 22:15:06 32° W 22:18:27 10° NNW
CZ-4B DEB 4.1 22:13:28 18° SSW 22:15:07 33° W 22:17:48 10° NNW
NOAA 11 4.2 22:11:31 19° S 22:15:34 83° WSW 22:21:06 10° NNW
ISS -0.7 22:15:59 10° NW 22:17:53 14° NNW 22:19:46 10° NNE
Cosmos 1867 4.3 22:13:37 10° NNW 22:18:45 40° NE 22:21:08 26° ESE
Tiangong 2 3.6 22:17:54 10° WSW 22:19:13 12° SW 22:19:29 12° SSW
Cosmos 2344 3.6 22:14:02 10° SSW 22:21:42 88° ESE 22:30:06 10° NE
Cosmos 2279 Rocket 4.2 22:15:40 10° NNW 22:21:53 71° W 22:27:05 15° S
Terra 3.3 22:20:55 20° E 22:21:58 22° ENE 22:25:35 10° NNE
H-2A R/B 2.4 22:20:37 31° SE 22:22:55 51° ENE 22:28:03 10° N
Helios 1B rocket 4.4 22:21:09 10° N 22:24:43 29° WNW 22:28:17 10° SW
BREEZE-M DEB (TANK) 4.0 22:21:16 10° NW 22:24:45 53° NE 22:34:00 17° ESE
Cosmos 2369 Rocket 4.3 22:21:09 10° WSW 22:25:58 28° WNW 22:30:51 10° N
ERS-1 Rocket 3.3 22:23:43 21° S 22:27:04 63° WSW 22:32:05 10° NNW
Cosmos 1606 4.1 22:25:56 10° NNW 22:29:24 35° W 22:31:47 17° SSW
GPS 2-04 Rocket1 3.7 22:27:00 10° W 22:29:53 27° SSW 22:29:53 27° SSW
Lacrosse 4 Rocket 1.8 22:30:11 10° NW 22:34:37 60° WSW 22:36:05 38° S
Cosmos 1733 Rocket 3.0 22:33:26 29° SSW 22:35:34 80° W 22:39:55 10° N
MetOp-B 4.4 22:35:11 25° S 22:38:17 63° WSW 22:43:37 10° NNW
Cosmos 1833 4.4 22:33:05 10° NNW 22:38:51 70° WSW 22:41:28 33° S
ATLAS CENTAUR R/B 1.3 22:41:20 56° E 22:41:20 56° E 22:44:45 10° NE
Cosmos 1437 3.7 22:39:37 10° N 22:41:58 38° NE 22:41:58 38° NE
ATLAS 5 CENTAUR R/B 2.8 22:37:09 10° NW 22:43:08 57° WSW 22:46:13 31° S
Nimbus 7 Rocket 4.3 22:37:40 10° NNE 22:43:33 73° ESE 22:46:30 31° S
USA 215 3.3 22:40:49 33° ESE 22:44:02 76° NE 22:50:36 10° NW
Cosmos 2297 Rocket 4.2 22:43:06 10° NNE 22:46:17 15° NE 22:48:21 13° ENE
SPOT 5 3.2 22:45:33 35° S 22:47:51 73° WSW 22:53:09 10° NNW
Cosmos 1656 Rocket 3.9 22:45:03 10° SSW 22:50:28 68° WNW 22:55:59 10° NNE
ARGOS 3.6 22:51:39 29° SSW 22:54:12 54° W 22:59:28 10° NNW
Sich 1 Rocket 3.5 22:56:04 65° E 22:56:06 65° E 23:00:29 10° NNE
Meteor 2-20 4.4 22:54:06 31° S 22:57:15 87° W 23:03:24 10° N
Meteor 2-20 Rocket 4.3 22:56:47 42° S 22:59:00 76° E 23:05:07 10° N
Cosmos 1975 Rocket 4.0 22:59:01 10° N 23:02:42 35° ENE 23:02:42 35° ENE
CARTOSAT-1 3.6 23:10:22 66° NE 23:10:22 66° NE 23:14:27 10° N
Cosmos 1655 Rocket 4.2 23:11:03 48° ESE 23:11:44 50° E 23:17:43 10° NNE
Cosmos 1378 Rocket 3.5 23:09:42 10° N 23:14:04 86° NW 23:14:04 86° NW
Cosmos 2251 Rocket 3.4 23:09:03 10° NNW 23:14:18 82° WSW 23:14:57 68° S
Cosmos 1674 Rocket 4.3 23:10:21 10° NNW 23:14:28 44° W 23:15:02 42° WSW
Cosmos 2026 Rocket 3.9 23:15:05 56° SSE 23:16:21 73° E 23:22:36 10° N
IGS 5A 3.7 23:20:17 65° N 23:20:17 65° N 23:23:53 10° N
Okean 3 3.7 23:16:34 10° NNW 23:20:28 62° WNW 23:20:28 62° WNW
SPOT 1/Viking Rocket 4.3 23:20:11 38° SW 23:21:29 46° W 23:26:29 10° NNW
DMSP B5D2-2 4.4 23:17:48 10° N 23:22:58 64° WNW 23:24:33 43° SW
Meteor 1-20 Rocket 4.1 23:22:48 66° ESE 23:23:10 68° E 23:28:49 10° NNE
H-2A R/B 2.7 23:27:42 46° NNE 23:27:42 46° NNE 23:30:51 10° N
Cosmos 1428 Rocket 4.4 23:32:18 65° SE 23:32:57 70° E 23:39:14 10° NNE
Meteor 1-25 Rocket 4.2 23:33:11 69° SSW 23:33:57 87° W 23:39:50 10° N
Cosmos 1417 Rocket 4.4 23:29:47 10° N 23:36:05 72° E 23:36:44 66° ESE
Cosmos 2227 Rocket 2.8 23:31:26 10° N 23:36:50 43° ENE 23:37:06 43° ENE
Milstar 3 3.7 23:33:23 10° WSW 23:41:17 38° SSW 23:41:17 38° SSW
S3M 4.0 23:38:00 10° N 23:44:04 63° E 23:44:18 63° E
Cosmos 1812 4.1 23:40:18 10° NNW 23:42:56 38° NW 23:42:56 38° NW
Cosmos 2219 3.5 23:40:01 10° NNW 23:45:38 54° WSW 23:45:59 53° WSW
GEOS 3 Rocket 3.5 23:46:59 83° N 23:46:59 83° N 23:52:04 10° NNW
